Temperature
22 22 21 21 22 22 23 24 25 25 26 26 25 25 24 23 22 19 19 19 19 18 18 18 18 18 18 18 18 18 18 18 18 18 18 18 18 18 18 17 17 17 18 18 18 18 18 18 18
22 21 22 22 22 23 23 24 25 25 26 25 25 25 24 22 21 19 19 19 19 18 18 18 18 18 18 17 17 17 17 17 17 18 17 17 17 17 17 17 17 17 17 17 18 18 18 18 18
22 22 22 23 23 23 23 25 25 26 25 25 25 24 23 22 21 19 19 19 18 18 18 18 18 18 18 17 17 17 17 17 17 17 17 17 17 17 17 17 17 17 17 17 17 18 18 18 18
22 22 23 23 23 24 25 25 26 26 25 25 25 24 22 21 20 19 19 19 18 18 18 18 18 18 18 17 18 17 17 17 17 17 17 17 17 17 17 17 17 17 17 17 17 17 17 17 17
22 23 23 23 24 25 25 26 26 25 25 25 24 23 21 20 20 19 19 19 18 18 18 18 18 18 18 17 17 17 17 17 17 17 17 17 17 17 17 17 17 17 17 17 17 17 17 17 17
23 24 23 23 24 25 25 26 26 26 25 25 24 22 20 20 19 19 19 19 18 18 18 18 18 18 18 17 17 17 17 17 17 17 17 17 17 17 17 17 17 17 17 17 17 17 17 17 17
23 23 23 23 23 24 25 25 25 25 25 25 24 22 20 20 19 19 19 19 18 18 18 18 18 17 17 17 17 17 17 17 17 17 17 17 17 17 17 17 17 17 17 17 17 17 17 17 17
24 24 24 24 23 24 25 25 25 25 24 24 24 22 20 19 19 19 19 19 18 18 18 18 17 17 17 17 17 17 17 17 17 17 17 17 16 17 17 17 17 17 17 17 17 17 17 17 17
24 23 23 24 24 24 25 25 25 24 24 24 23 22 21 20 19 19 19 19 19 18 18 18 17 17 17 17 17 17 17 17 17 16 16 16 16 16 16 16 17 17 17 17 17 17 17 17 17
24 22 24 25 25 25 25 25 25 25 24 23 22 21 20 20 19 19 19 19 19 18 18 18 18 17 17 17 17 17 17 16 16 16 16 16 16 16 16 16 16 16 16 16 16 16 16 16 16
25 24 25 25 25 25 25 25 25 24 23 23 22 21 20 20 20 20 19 19 19 19 18 18 18 18 17 17 17 17 17 16 16 16 16 16 16 16 16 16 16 16 16 16 16 16 16 16 16
25 25 25 25 25 25 25 24 24 24 23 23 22 21 20 20 20 20 20 19 19 19 18 18 18 18 18 17 17 17 17 16 16 16 16 16 16 16 16 16 16 16 16 16 16 16 16 16 16
24 25 25 25 24 24 24 24 24 23 23 22 22 21 21 20 20 20 20 20 19 19 18 18 18 18 18 17 17 17 17 17 16 16 16 16 16 16 16 16 16 16 16 16 16 16 16 16 16
25 25 25 25 24 24 24 24 24 23 23 22 22 21 21 21 20 20 20 20 19 19 19 18 18 18 18 17 17 17 17 17 17 16 16 16 16 16 16 16 16 16 16 16 16 16 16 16 16
25 25 25 25 25 25 25 24 24 23 23 23 22 22 21 21 20 20 20 20 19 19 18 18 18 18 18 17 17 17 17 17 17 16 16 16 16 16 16 16 16 16 16 15 15 15 15 15 15
25 24 23 24 25 25 24 22 24 23 23 23 23 22 21 21 20 20 20 19 19 19 18 18 18 18 18 17 17 17 17 17 16 16 16 16 16 16 16 16 16 15 15 15 15 15 15 15 15
24 23 23 24 25 25 24 23 24 24 23 23 23 22 21 21 20 20 20 19 19 19 18 18 18 18 17 17 17 17 17 16 16 16 16 16 16 16 16 15 15 15 15 15 15 15 15 15 15
23 24 24 24 25 25 24 23 24 24 23 23 23 22 21 21 20 20 20 19 19 19 18 18 18 17 17 17 17 16 16 16 16 16 16 16 16 16 15 15 15 15 15 15 15 15 14 14 14
25 24 24 24 25 25 24 24 24 24 23 23 23 22 22 21 20 20 19 19 19 19 18 18 17 17 17 17 16 16 16 16 16 16 16 16 15 15 15 15 15 15 15 15 14 14 14 14 14
24 24 24 24 25 25 24 24 24 24 23 23 22 22 22 21 20 20 19 19 18 18 18 18 17 17 17 16 16 16 16 16 16 16 16 15 15 15 15 15 15 15 15 14 14 14 14 14 14
24 24 24 24 24 24 23 23 23 24 23 22 22 22 22 21 20 20 19 19 18 18 18 17 17 17 16 16 16 16 16 16 16 15 15 15 15 15 15 15 15 15 14 14 14 14 14 14 14
23 25 24 24 23 22 23 21 23 23 23 22 22 22 21 21 20 19 19 18 18 18 17 17 17 17 16 16 16 16 16 15 15 15 15 15 15 15 15 15 14 14 14 14 14 14 14 14 14
24 25 24 24 23 22 23 22 23 23 22 22 22 22 21 21 20 19 19 18 18 17 17 17 17 16 16 16 16 16 15 15 15 15 15 15 15 15 15 14 14 14 14 14 14 14 14 14 13
25 24 24 24 23 21 23 22 22 23 23 22 22 22 21 20 20 19 18 18 17 17 17 17 16 16 16 16 16 16 15 15 15 15 15 15 15 15 14 14 14 14 14 14 14 14 14 13 13
24 22 21 21 21 21 23 23 22 23 24 23 22 22 21 20 19 19 18 17 17 17 17 16 16 16 16 16 15 15 15 15 15 15 15 15 15 14 14 14 14 14 14 14 14 13 13 13 13
23 23 21 20 21 22 23 22 22 24 24 23 22 21 21 20 19 18 18 17 17 17 16 16 16 16 16 15 15 15 15 15 15 15 15 15 14 14 14 14 14 14 14 13 13 13 13 13 13
23 23 23 22 22 21 22 22 23 23 23 22 22 21 20 19 19 18 17 17 17 16 16 16 15 15 15 15 15 15 15 15 15 15 15 14 14 14 14 14 14 14 13 13 13 13 13 13 13
23 23 22 21 20 20 22 22 21 21 22 22 21 21 20 19 19 18 17 17 16 16 16 15 15 15 15 15 15 15 15 15 15 14 14 14 14 14 14 14 13 13 13 13 13 13 13 13 12
22 22 22 21 21 20 20 21 23 22 22 21 21 20 20 19 18 18 17 17 16 16 16 15 15 15 15 14 14 14 14 14 14 14 14 14 14 14 14 14 13 13 13 13 13 13 13 12 12
23 22 22 20 20 21 20 20 23 22 22 21 21 20 20 19 18 18 17 16 16 16 15 15 15 14 14 14 14 14 14 14 14 14 14 14 14 14 14 13 13 13 13 13 13 13 12 12 12
Wind_Speed
9 10 7 3 2 2 2 5 6 6 6 8 9 9 12 12 9 8 3 4 8 10 11 11 11 11 12 12 12 13 13 13 13 13 13 13 12 12 12 12 12 12 12 13 13 13 12 12 12
9 6 4 3 2 0 3 6 8 8 7 6 7 10 13 11 11 8 4 5 9 11 12 12 12 12 12 13 13 13 13 13 13 13 13 13 12 12 12 12 12 11 12 12 12 12 11 11 11
10 6 3 2 1 1 4 6 8 8 6 5 7 9 8 7 9 6 6 7 10 12 13 12 12 13 13 13 14 13 13 14 13 13 13 13 13 12 12 12 11 11 11 11 11 11 11 11 11
5 3 3 1 1 4 5 6 6 6 5 5 7 8 9 9 6 8 8 9 11 12 13 12 13 13 13 13 13 13 14 14 13 13 13 13 13 12 12 12 11 10 10 11 11 11 11 11 10
4 3 2 1 1 4 5 5 5 5 5 6 9 10 9 10 10 10 8 9 10 11 12 13 13 13 13 13 12 13 13 13 12 13 13 12 12 13 12 12 11 10 10 10 10 11 10 10 9
3 3 2 1 2 3 3 3 4 5 6 6 9 10 7 9 9 7 8 8 9 11 12 12 12 13 13 13 12 12 12 12 12 12 12 12 12 12 12 11 11 11 11 11 10 10 10 9 8
3 2 2 1 2 2 3 3 3 5 4 4 5 8 7 9 7 6 7 8 9 10 10 10 10 11 12 12 12 12 11 11 11 11 10 10 11 11 12 12 11 11 11 11 9 8 8 7 6
3 2 2 2 2 2 2 3 3 4 4 4 4 6 7 9 8 7 7 7 7 8 8 9 9 10 10 10 10 11 10 9 9 8 8 8 9 10 10 11 11 11 10 9 8 8 6 5 4
4 2 1 1 2 3 3 3 3 4 5 5 7 9 12 13 10 8 6 6 6 7 6 7 8 8 9 9 9 9 8 7 6 5 5 6 6 7 8 10 9 9 8 7 6 5 4 3 3
3 1 2 1 2 4 4 3 2 4 5 5 8 11 13 11 9 8 7 6 6 6 5 5 7 7 7 7 8 6 6 5 4 4 5 5 6 7 8 9 7 6 5 4 3 2 1 2 2
2 2 0 2 2 3 3 3 1 3 3 4 7 11 11 10 9 7 7 6 6 6 5 5 5 6 6 4 5 3 4 3 3 4 6 6 6 6 6 5 5 4 3 2 2 1 1 3 4
3 2 1 2 3 2 2 2 1 2 3 6 8 9 9 7 7 6 6 7 6 6 5 5 5 5 5 5 3 3 2 2 3 3 6 4 2 2 3 2 2 3 2 2 2 2 4 5 6
4 3 2 2 2 2 3 3 2 3 5 6 8 9 9 7 6 6 6 7 7 6 5 5 4 5 5 4 2 4 3 3 4 3 3 5 2 2 2 2 3 3 3 3 2 3 4 4 6
3 4 4 5 5 4 4 4 4 5 6 7 8 8 8 7 6 6 6 6 7 6 6 5 4 4 5 4 3 3 3 4 4 2 3 5 3 2 2 3 3 2 3 2 3 4 4 4 4
5 5 6 6 6 5 4 5 6 7 7 8 8 8 9 8 6 5 5 6 7 6 6 5 4 4 4 5 3 3 3 4 3 2 3 5 4 4 3 3 2 2 3 4 4 5 4 3 4
8 7 6 6 7 6 6 5 6 8 8 7 7 7 7 7 7 6 6 5 6 6 6 5 4 4 4 4 3 2 3 3 3 3 3 3 4 5 3 2 2 3 4 3 3 3 3 4 4
6 6 6 6 8 6 6 5 6 8 7 7 7 8 8 8 7 6 6 5 5 6 6 5 4 4 4 3 3 3 3 3 3 3 3 3 4 5 4 2 2 4 3 2 3 3 3 3 3
5 6 5 6 7 7 6 6 5 8 7 7 6 7 8 8 7 6 6 5 5 6 6 6 4 4 4 3 3 3 3 2 3 3 3 4 4 6 4 2 3 4 3 3 3 4 3 2 2
6 6 4 4 5 6 7 7 5 8 7 6 5 7 8 8 8 7 7 6 5 5 5 5 5 3 4 3 2 2 2 2 2 2 3 3 4 5 4 3 3 3 3 3 3 3 3 2 2
8 7 6 3 3 4 5 6 5 6 8 6 5 6 7 7 8 8 8 6 5 5 4 5 5 4 3 3 2 2 2 2 2 2 2 2 3 4 3 3 3 3 3 3 3 3 2 1 2
8 6 6 4 2 5 5 6 6 5 6 6 5 4 6 7 7 8 8 6 5 5 4 5 4 4 4 4 2 2 2 1 2 2 2 1 2 3 3 3 3 3 3 3 2 2 3 1 1
7 5 6 7 5 5 6 4 5 7 7 8 6 4 3 6 7 7 7 7 5 4 4 4 4 4 4 4 3 3 3 2 2 2 2 2 2 3 3 2 2 2 3 3 2 3 2 2 1
6 6 8 9 7 7 8 6 4 6 7 7 7 6 4 5 7 7 7 7 7 6 4 4 4 4 4 4 3 3 2 2 2 2 3 2 2 2 2 2 2 2 2 3 2 2 2 1 1
6 7 9 9 6 8 9 6 3 4 6 7 7 7 6 6 7 7 7 6 6 6 5 4 4 4 4 4 4 3 3 2 2 2 2 2 2 2 2 3 2 2 2 2 2 2 2 1 1
7 5 4 4 5 6 5 4 2 4 5 6 6 7 6 6 7 6 6 7 6 6 5 4 4 4 4 4 3 3 3 3 2 2 3 2 2 2 3 2 2 2 2 2 2 2 2 2 1
7 7 4 3 4 3 3 3 3 6 7 6 5 6 6 5 6 6 6 6 6 6 5 5 5 4 4 3 3 2 2 2 2 2 2 2 2 2 3 3 2 2 2 1 1 0 1 1 1
6 6 6 6 8 6 3 3 4 6 6 6 6 5 5 5 5 6 6 6 6 6 5 5 5 4 4 3 3 3 2 2 2 2 3 2 2 2 3 3 3 3 3 2 2 1 0 1 1
7 5 4 4 4 5 4 4 3 6 6 6 5 5 4 4 4 5 5 5 5 5 5 5 4 4 3 3 2 2 2 2 2 2 2 3 3 3 3 3 3 3 3 3 2 2 1 1 1
7 7 6 4 5 4 3 1 3 4 5 5 5 4 4 3 4 4 4 4 5 5 5 5 5 4 3 3 2 2 2 2 2 2 2 2 2 3 3 4 4 4 4 3 3 3 2 2 1
7 8 7 5 5 5 5 1 3 5 4 3 3 4 5 4 4 4 4 4 4 4 4 4 4 4 4 3 3 2 2 2 2 2 2 2 2 2 3 3 2 3 3 3 4 3 3 2 2
Wind_Direction
258 246 240 253 251 226 86 74 79 68 65 52 52 62 66 52 54 94 123 88 92 95 93 80 73 72 68 66 69 69 71 78 80 80 79 79 78 77 77 79 79 77 76 74 74 74 75 75 77
269 260 259 245 238 250 88 85 79 72 79 75 64 67 75 66 76 99 108 94 95 93 88 80 76 76 72 69 72 72 74 78 79 79 78 78 77 76 76 78 78 77 77 76 75 74 74 75 74
263 263 268 257 281 50 86 86 90 83 81 81 75 62 59 71 81 98 112 106 93 89 88 85 81 79 76 74 73 72 74 76 76 77 77 76 76 76 77 79 79 79 79 79 77 75 76 75 72
256 242 242 248 45 71 91 95 99 98 84 80 88 79 72 63 82 107 116 103 95 95 93 94 88 84 80 77 77 77 76 77 76 77 78 79 77 76 77 79 78 79 81 80 78 79 77 75 71
243 249 225 186 99 72 67 76 93 99 95 84 87 92 85 79 92 106 105 100 100 100 99 101 97 92 86 81 79 81 79 78 78 78 78 80 79 78 78 78 77 78 81 80 79 81 81 77 72
249 243 235 186 130 105 95 79 93 93 90 92 105 104 96 101 97 106 104 103 104 105 106 107 106 99 93 89 86 84 83 81 81 82 81 83 83 80 79 79 79 78 79 80 81 80 83 80 73
258 273 225 190 122 105 87 81 74 91 88 79 96 105 118 109 111 117 110 103 102 105 113 116 116 107 101 97 93 89 87 86 86 87 87 89 89 87 83 80 81 81 80 79 81 83 84 83 77
274 273 223 204 147 119 77 92 84 85 85 75 81 108 130 130 135 123 117 114 115 115 119 125 124 120 115 109 104 100 97 95 97 98 99 99 97 95 93 88 85 85 85 84 85 85 86 88 82
268 252 252 182 149 127 129 116 109 111 104 87 73 95 125 135 139 132 128 121 113 112 121 129 128 126 123 123 118 118 113 109 114 117 118 115 113 111 102 97 95 93 93 92 95 97 98 105 111
208 219 252 41 124 135 133 123 143 140 121 109 99 106 125 139 146 147 140 131 130 127 122 120 128 126 121 120 127 132 124 135 132 120 118 112 101 98 99 109 112 114 119 121 129 137 124 116 121
193 200 359 56 79 114 127 127 135 137 127 129 126 129 137 146 150 151 142 138 131 123 115 115 121 115 115 111 118 105 109 119 104 90 93 95 101 110 115 131 140 147 143 120 111 146 89 86 87
208 215 206 114 95 119 134 142 151 89 108 117 129 137 142 151 149 149 145 139 130 124 120 111 108 113 112 106 111 118 109 101 80 73 86 85 86 91 110 116 117 112 88 72 74 70 65 67 73
202 213 191 144 150 185 170 172 155 134 121 123 133 142 147 160 157 154 150 139 132 132 124 113 110 112 111 104 113 103 100 86 84 60 94 92 73 78 87 83 72 80 76 67 48 51 57 54 56
199 205 189 183 187 203 199 196 189 165 151 150 153 153 159 166 161 150 149 140 137 138 130 120 118 114 118 119 115 100 93 87 82 57 65 90 90 72 79 78 66 65 79 80 82 66 53 56 62
205 206 204 200 203 200 216 219 197 171 167 168 170 165 164 163 155 147 153 145 138 136 128 124 128 118 114 110 104 103 103 103 99 69 60 75 77 75 69 76 67 71 70 61 66 70 62 60 64
214 217 217 203 210 202 225 233 179 164 178 177 175 163 158 151 152 151 151 142 135 131 121 117 124 114 103 108 116 111 93 86 82 60 50 69 76 79 72 70 62 68 67 59 65 68 61 57 57
218 225 212 201 201 198 213 243 178 164 187 182 179 167 165 160 159 153 146 139 136 132 126 127 120 109 105 105 107 96 94 88 81 59 39 45 63 79 80 64 58 69 65 55 58 58 68 68 63
228 230 223 210 189 200 212 231 192 172 196 192 183 173 165 160 159 154 142 142 136 135 131 130 121 116 108 91 98 92 90 87 89 76 46 37 51 66 74 72 67 66 69 54 58 63 57 62 56
266 274 267 233 203 207 227 232 206 178 192 197 185 182 171 163 161 155 145 137 143 139 135 133 134 131 120 110 105 120 123 119 107 106 78 48 59 66 70 60 65 66 75 77 76 83 73 56 62
252 263 260 228 219 243 246 246 234 183 183 183 191 187 174 164 159 156 152 149 159 143 142 142 141 143 128 121 129 129 137 149 129 108 110 83 75 79 77 83 84 79 79 70 66 73 63 40 50
254 255 262 259 274 258 252 249 238 192 172 165 189 187 173 164 158 155 155 153 152 148 149 143 140 141 134 137 126 111 102 100 104 129 124 111 88 86 76 87 96 103 101 99 96 95 91 58 5
263 267 268 265 255 256 237 251 228 183 170 169 173 177 179 158 151 149 150 149 154 139 136 137 143 146 140 139 141 144 142 158 184 162 146 153 119 106 95 89 99 108 103 107 113 102 103 99 14
267 286 268 265 263 271 254 250 217 177 175 172 166 165 177 153 152 154 153 155 150 141 141 148 145 138 135 140 138 155 160 185 161 144 144 157 138 134 135 125 114 109 113 115 98 91 90 111 138
263 265 261 252 251 254 247 240 217 190 173 159 161 161 164 152 148 149 146 149 145 142 144 151 148 141 132 133 140 166 172 179 146 156 165 170 152 169 159 137 135 121 112 118 130 131 134 158 132
246 255 254 235 219 237 223 221 186 122 117 132 141 145 148 146 146 143 142 149 149 149 150 151 141 136 136 145 161 183 178 176 173 180 179 176 167 171 164 143 147 130 133 154 155 152 166 173 159
239 239 249 267 268 284 241 215 125 104 104 110 115 118 127 136 144 147 148 147 153 152 150 151 147 145 146 162 180 192 169 168 184 178 173 191 198 178 155 149 156 150 143 140 118 107 185 151 159
254 245 259 278 285 275 236 176 152 129 122 117 117 116 126 128 134 142 146 146 148 152 151 153 152 155 163 173 187 194 178 178 176 183 192 197 202 175 161 171 175 165 159 159 140 143 139 83 101
260 280 272 251 277 275 262 226 178 146 138 131 124 122 113 117 130 138 143 149 150 151 155 162 165 167 164 166 198 192 189 198 191 184 194 198 198 183 172 184 179 170 165 163 141 144 148 123 99
225 237 246 255 258 271 286 360 72 124 129 132 134 129 124 120 131 137 139 142 148 152 162 170 172 169 166 170 191 205 202 208 208 186 197 194 203 188 179 186 184 173 167 166 161 161 161 160 165
242 250 252 251 266 272 279 281 92 99 100 100 104 132 138 127 127 127 127 135 146 160 169 173 172 174 173 181 193 197 198 216 208 193 191 197 202 190 186 176 177 170 169 170 164 170 163 169 183
Height
1479 1479 1480 1482 1483 1487 1486 1480 1475 1477 1478 1479 1480 1480 1485 1489 1494 1506 1505 1503 1503 1502 1501 1500 1500 1499 1499 1499 1498 1498 1498 1499 1499 1500 1501 1502 1503 1504 1505 1505 1506 1507 1508 1508 1509 1509 1510 1510 1511
1479 1481 1483 1482 1485 1492 1489 1479 1479 1479 1480 1481 1482 1483 1487 1493 1498 1502 1503 1504 1504 1503 1502 1502 1501 1501 1501 1500 1500 1500 1501 1501 1502 1502 1503 1503 1504 1505 1506 1507 1508 1508 1509 1510 1510 1511 1512 1512 1513
1480 1482 1483 1481 1483 1488 1488 1479 1479 1480 1481 1482 1484 1487 1491 1497 1500 1502 1504 1505 1505 1504 1503 1503 1503 1502 1502 1502 1502 1502 1503 1503 1504 1504 1505 1505 1506 1506 1507 1508 1509 1509 1510 1511 1512 1513 1513 1514 1514
1482 1483 1482 1483 1486 1481 1479 1478 1479 1481 1482 1483 1485 1490 1496 1500 1502 1503 1505 1506 1506 1505 1505 1504 1504 1504 1504 1504 1504 1505 1505 1505 1505 1506 1506 1507 1507 1508 1509 1509 1510 1511 1512 1512 1513 1514 1514 1515 1516
1482 1482 1483 1486 1484 1479 1477 1478 1479 1481 1483 1484 1487 1493 1499 1502 1503 1504 1506 1507 1507 1507 1506 1506 1506 1506 1506 1506 1506 1506 1507 1507 1507 1508 1508 1509 1509 1510 1510 1511 1512 1512 1513 1514 1514 1515 1516 1516 1517
1482 1479 1486 1490 1484 1480 1479 1480 1480 1482 1484 1486 1489 1494 1501 1504 1504 1505 1506 1507 1508 1508 1507 1507 1507 1508 1508 1508 1508 1508 1508 1509 1509 1510 1510 1511 1511 1512 1512 1513 1513 1514 1514 1515 1516 1516 1517 1518 1519
1482 1481 1485 1485 1485 1483 1480 1481 1482 1484 1486 1488 1489 1494 1501 1503 1505 1506 1507 1508 1509 1509 1509 1509 1509 1509 1509 1510 1510 1510 1510 1511 1511 1512 1512 1513 1513 1514 1514 1514 1515 1515 1516 1516 1517 1518 1518 1519 1520
1480 1481 1482 1483 1485 1485 1482 1482 1484 1485 1487 1490 1491 1494 1500 1504 1505 1507 1508 1509 1510 1510 1511 1510 1511 1511 1511 1512 1512 1512 1512 1513 1513 1514 1514 1515 1515 1515 1516 1516 1517 1517 1517 1518 1518 1519 1520 1521 1521
1480 1483 1486 1483 1484 1483 1482 1483 1486 1487 1489 1491 1492 1495 1499 1503 1505 1507 1509 1510 1511 1512 1512 1512 1513 1513 1513 1513 1514 1514 1515 1515 1515 1516 1516 1517 1517 1517 1518 1518 1518 1519 1519 1519 1520 1521 1521 1522 1523
1479 1485 1482 1477 1478 1481 1482 1484 1485 1487 1489 1492 1495 1497 1500 1502 1505 1507 1509 1510 1511 1512 1513 1514 1514 1515 1515 1516 1516 1516 1516 1517 1517 1518 1518 1519 1519 1519 1520 1520 1520 1520 1521 1521 1522 1522 1523 1523 1523
1477 1480 1478 1478 1479 1480 1482 1484 1486 1487 1490 1492 1495 1498 1500 1502 1505 1507 1508 1510 1511 1513 1514 1515 1516 1516 1517 1517 1518 1518 1518 1518 1519 1520 1520 1520 1520 1521 1521 1521 1521 1522 1522 1523 1523 1523 1524 1524 1524
1477 1478 1478 1479 1481 1482 1483 1485 1487 1488 1491 1493 1495 1497 1500 1502 1504 1506 1508 1510 1512 1513 1514 1516 1517 1517 1518 1518 1519 1519 1519 1520 1520 1521 1521 1522 1522 1522 1522 1522 1523 1523 1523 1524 1525 1525 1525 1525 1526
1477 1478 1479 1481 1482 1483 1484 1485 1487 1489 1491 1493 1495 1498 1500 1502 1504 1506 1508 1510 1512 1513 1514 1516 1517 1517 1518 1519 1519 1520 1521 1521 1521 1522 1522 1523 1523 1523 1523 1524 1524 1524 1525 1525 1525 1526 1526 1527 1527
1477 1477 1479 1481 1482 1483 1484 1485 1487 1489 1491 1493 1495 1497 1500 1502 1504 1506 1507 1509 1511 1513 1514 1515 1517 1518 1518 1519 1520 1520 1521 1522 1522 1523 1523 1523 1523 1524 1524 1524 1525 1525 1525 1526 1526 1526 1527 1527 1527
1476 1477 1478 1479 1480 1481 1483 1485 1485 1487 1489 1492 1494 1496 1498 1501 1503 1505 1507 1508 1510 1512 1514 1515 1517 1517 1518 1519 1520 1521 1522 1522 1523 1523 1524 1524 1524 1524 1525 1525 1525 1526 1526 1526 1527 1527 1527 1528 1528
1474 1478 1483 1478 1477 1479 1485 1489 1482 1485 1487 1490 1492 1495 1497 1499 1501 1503 1505 1507 1509 1511 1513 1514 1516 1517 1518 1519 1520 1521 1522 1522 1523 1523 1524 1524 1525 1525 1525 1525 1526 1526 1526 1527 1527 1527 1528 1528 1528
1476 1481 1481 1478 1474 1476 1481 1484 1480 1483 1485 1487 1490 1492 1495 1498 1500 1502 1504 1506 1508 1510 1512 1514 1515 1517 1518 1519 1520 1521 1522 1522 1523 1524 1524 1525 1525 1525 1525 1525 1526 1526 1526 1527 1527 1528 1528 1528 1529
1479 1478 1477 1477 1473 1475 1479 1480 1478 1480 1483 1485 1487 1490 1493 1495 1499 1501 1502 1505 1507 1509 1511 1513 1514 1516 1517 1518 1519 1520 1521 1522 1523 1523 1524 1524 1525 1525 1525 1525 1526 1526 1526 1527 1527 1527 1528 1528 1529
1471 1474 1476 1474 1469 1473 1476 1477 1476 1477 1481 1483 1485 1488 1490 1493 1496 1499 1501 1503 1506 1508 1510 1511 1513 1515 1516 1517 1518 1519 1520 1521 1522 1523 1524 1524 1525 1525 1525 1525 1525 1526 1526 1526 1527 1527 1528 1528 1529
1470 1474 1475 1471 1469 1471 1475 1475 1473 1474 1477 1480 1482 1485 1487 1490 1494 1496 1499 1502 1504 1506 1508 1510 1512 1513 1515 1516 1517 1519 1520 1521 1522 1523 1523 1524 1524 1524 1524 1525 1525 1525 1526 1526 1526 1527 1527 1528 1528
1469 1472 1474 1474 1471 1470 1474 1479 1474 1471 1474 1477 1481 1483 1485 1488 1491 1494 1497 1500 1502 1504 1506 1508 1510 1512 1513 1515 1516 1518 1519 1520 1521 1522 1522 1523 1523 1524 1524 1525 1525 1525 1525 1526 1526 1526 1527 1527 1528
1473 1467 1468 1471 1477 1480 1476 1489 1476 1470 1473 1475 1478 1481 1483 1486 1489 1492 1495 1498 1500 1502 1505 1507 1509 1510 1512 1513 1515 1516 1517 1518 1520 1521 1521 1522 1523 1523 1524 1524 1524 1525 1525 1525 1526 1526 1526 1527 1527
1469 1465 1467 1469 1474 1479 1475 1482 1476 1467 1473 1473 1475 1479 1482 1484 1487 1490 1493 1496 1498 1500 1503 1505 1507 1508 1510 1511 1513 1514 1516 1517 1518 1519 1520 1521 1521 1522 1523 1523 1523 1524 1524 1524 1525 1525 1526 1526 1527
1464 1466 1467 1467 1474 1487 1475 1478 1479 1469 1468 1470 1473 1476 1480 1483 1486 1489 1491 1494 1496 1498 1501 1503 1505 1507 1508 1509 1511 1512 1514 1515 1517 1518 1518 1519 1520 1521 1521 1522 1522 1523 1523 1523 1524 1524 1525 1525 1526
1465 1475 1486 1487 1489 1485 1466 1472 1474 1463 1462 1466 1470 1475 1478 1481 1484 1487 1489 1491 1494 1496 1499 1501 1503 1504 1506 1507 1509 1510 1512 1513 1514 1515 1517 1517 1518 1519 1520 1520 1521 1521 1522 1522 1522 1523 1524 1524 1525
1466 1472 1488 1495 1489 1479 1468 1472 1468 1460 1463 1466 1470 1474 1477 1480 1483 1486 1487 1489 1491 1493 1496 1499 1501 1502 1504 1506 1507 1509 1510 1511 1512 1513 1514 1515 1516 1517 1518 1518 1519 1519 1520 1521 1521 1522 1522 1523 1523
1467 1468 1467 1478 1478 1481 1473 1468 1464 1461 1464 1467 1471 1474 1477 1479 1482 1484 1486 1488 1490 1492 1494 1496 1498 1500 1502 1504 1505 1507 1508 1509 1510 1511 1512 1513 1514 1515 1516 1516 1517 1518 1518 1519 1519 1520 1521 1521 1522
1464 1466 1471 1479 1488 1489 1477 1471 1472 1467 1467 1468 1471 1474 1476 1479 1481 1483 1484 1486 1488 1490 1492 1495 1496 1498 1500 1501 1503 1505 1506 1507 1508 1509 1510 1510 1511 1512 1513 1514 1515 1516 1516 1517 1517 1518 1519 1519 1520
1466 1467 1469 1473 1475 1486 1488 1482 1461 1464 1465 1468 1471 1474 1477 1478 1481 1482 1484 1485 1487 1489 1491 1493 1495 1496 1498 1499 1501 1502 1503 1505 1505 1506 1507 1508 1508 1509 1510 1511 1512 1513 1514 1515 1515 1516 1517 1517 1518
1461 1464 1468 1480 1480 1475 1483 1484 1461 1463 1465 1468 1471 1473 1475 1478 1480 1481 1483 1484 1486 1487 1489 1491 1492 1494 1495 1497 1498 1499 1501 1502 1503 1503 1504 1505 1506 1506 1507 1508 1509 1510 1511 1512 1513 1514 1515 1515 1516